Погода в Тобольске

Погода в Тобольске : погода сейчас, прогноз погоды и архив. Всё, что Вы хотите узнать о погоде в Тобольске!

Хотите узнать прогноз погоды в Тобольске? Тогда Вам сюда: Погода в Тобольске

Поиск расширенной информации на нашем сайте:

Другие новости

Новости СМИ2

Главная страница сайта

Новости сайта

03.07.2017

Напоминаем, что на нашем специализированном сайте Метеоцентр.Азия вы можете получить высокодетализированные автоматические прогнозы погоды по пунктам России, СНГ и мира в авиационном формате (включающие направление и скорость ветра, видимость, явления погоды, количество и форму облачности, нижнюю и верхнюю границу облачности).


Погода в Тобольске - сегодня

Время (UTC), дата Ветер
(°,м/с) 
Видим.   Явления Облачность Т
(°С)
Тd
(°С)
f(%) Тe
(°С)
Pmin
(гПа)
dP
(гПа)
Po
(мм)
O2
(г/м3)
Тmin Tmax R s Состояние
почвы
06 21.02.18 090 (В) 20000 м    10/0 средняя 
[Ac und]
-9.2 -13.4 71 -13  1012.8  -2.1  755  316           
09 21.02.18 110 (В) 20000 м    10/0 средняя, верхняя 
[Ac und|Ci sp]
-7.7 -13.3 64 -11  1010  -2.7  753  313           
12 21.02.18 100 (В) 20000 м    10/3 600 м средняя, верхняя 
[Sc|Ac und|Ci sp]
-7.8 -13.9 62 -9  1008.4  -1.6  752  313           
18 21.02.18 260 (З) 10 км    10/0 средняя 
[Ac und]
-10.5 -14.1 75 -12  1007.3  751  316           
21 21.02.18 270 (З) 10 км  слаб. снег  10/0 средняя 
[Ac As]
-10.1 -12.2 85 -13  1008.8  1.5  752  316           
00 22.02.18 260 (З) 4000 м  слаб. снег  10/0 средняя 
[As op]
-12 -14.2 84 -15  1010.5  1.6  753  319           
03 22.02.18 250 (З) 20000 м  {снег}  ясно 
-15.7 -18 82 -18  1012.3  1.7  754  324  -15.7    0.3  30  равномерный
сухой снег
100% 
06 22.02.18 250 (З) 20000 м  {снег}  ясно 
-13.2 -18.2 66 -15  1013.6  1.4  755  321           
09 22.02.18 210 (ЮЗ) 20000 м    3/0 верхняя 
[Ci fib]
-10 -16.5 59 -12  1013.7  0.2  755  317           
12 22.02.18 230 (ЮЗ) 10 км  слаб. снег  10/0 средняя 
[As op]
-9.9 -15 66 -12  1014.2  0.4  756  317           
15 22.02.18 150 (ЮВ) 4000 м  слаб. снег  10/0 средняя 
[As op]
-13.7 -15.7 85 -14  1014.5  0.3  756  322    -9.5  0.2     
18 22.02.18 тихо ()   4000 м  слаб. снег  10/0 средняя 
[As op]
-15.9 -18.1 83 -16  1015.4  0.8  757  325           
21 22.02.18 280 (З) 4000 м  слаб. снег  10/0 средняя 
[As op]
-19.7 -22.2 80 -20  1016.3  0.7  757  330           
00 23.02.18 тихо ()   4000 м  слаб. снег  10/0 средняя 
[As op]
-23.3 -26.2 77 -23  1017.3  0.9  758  336           
03 23.02.18 тихо ()   10 км  слаб. снег  10/0 средняя 
[Ac As]
-23.5 -26.5 76 -24  1018  0.7  758  336  -24.2    0.2  30  равномерный
сухой снег
100% 
06 23.02.18 080 (В) 20000 м  {снег}  10/0 средняя 
[As trans]
-16.6 -20.4 72 -17  1018.2  0.3  759  327           
09 23.02.18 130 (ЮВ) 10 км  слаб. снег  10/1 300 м средняя 
[Frnb|As op]
-12.1 -16.9 67 -12  1018.4  0.4  759  321           
12 23.02.18 280 (З) 10 км  слаб. снег  10/0 средняя 
[As op]
-13.1 -16.6 75 -13  1019  0.6  759  323           
15 23.02.18 260 (З) 4000 м  слаб. снег  10/0 средняя 
[As op]
-19 -21.2 83 -19  1019.4  0.2  760  331    -10.9  0.2     
18 23.02.18 260 (З) 10 км  {снег}  8/0 верхняя 
[Ci sp]
-22.7 -25.2 80 -23  1019.8  0.3  760  336           
21 23.02.18 тихо ()   10 км    6/0 верхняя 
[Ci sp]
-26.6 -29.7 75 -27  1020.1  0.2  760  341           
00 24.02.18 тихо ()   10 км    ясно 
-28.4 -31.9 72 -28  1020.4  0.2  760  344           
03 24.02.18 тихо ()   20000 м  [диам. изморози 1 мм]  ясно 
-28.9 -32.1 74 -29  1020.6  0.2  760  345  -29.8    0.0  31  равномерный
сухой снег
100% 
06 24.02.18 110 (В) 20000 м  [диам. изморози 0 мм]  ясно 
-21 -24.7 72 -21  1020.6  0.3  760  334           
09 24.02.18 220 (ЮЗ) 10 км  слаб. снег  10/0 средняя 
[As op]
-13 -17.4 70 -13  1020.2  -0.2  760  323           
Время (UTC), дата Ветер
(°,м/с) 
Видим.   Явления Облачность Т
(°С)
Тd
(°С)
f(%) Тe
(°С)
Pmin
(гПа)
dP
(гПа)
Po
(мм)
O2
(г/м3)
Тmin Tmax R s Состояние
почвы

Для получения пояснительной информации подведите курсор к названию столбца.

ПОГОДА в Тобольске - архив

Всё, что Вы хотите узнать о погоде в Тобольске - удобно и подробно!

Выберите нужную дату (начиная с 1 января 2015* года) и нажмите кнопку "Найти".
Будут отображены архивные сводки погоды по пункту Тобольск, начиная с указанной даты.


Отображать данные в формате CSV (для использования в таблицах Excel)


Внимание! Наш архив погоды предназначен исключительно для личного некоммерческого использования в познавательных целях. Если Вам необходимы официальные справки о состоянии погоды (для производственных, юридических, коммерческих и т.п. целей), обращайтесь в органы Росгидромета.

*Примечание: данная дата относится к архиву по метеостанциям СССР (Россия, СНГ, Балтия).
Архив по метеостанциям Зарубежной Европы и Азии (кроме Китая) хранится 10 дней, по другим регионам земного шара (Китай, Африка, Америка, Австралия, Океания) - 1 день.

Тобольск - район местоположения метеостанции


Название, широта, долгота, высота метеостанции:
Тобольск 58.2°ш. 68.2°д. 50 м над ур. моря [Российская Федерация]

Дополнительная информация

В oтличие oт бoльшинства пoгoдных сайтoв мы публикуем пoдрoбную метеoинфoрмацию в детальнoм прoфессиoнальнoм фoрмате.

Характеристики температуры и влажнoсти вoздуха измеряются на высoте 2 м в тени вдали oт зданий и деревьев.
Скoрoсть ветра измеряется на высoте 10 м (на урoвне рoста челoвека скoрoсть ветра ниже в 1.5-2 раза). Если метеoстанция нахoдится в гoрoде или в лесу, тo скoрoсть ветра занижена на 2-4 м/с пo сравнению с oткрытым местoм. Скoрoсть ветра над акватoриями крупных рек и oзёр, а также на вершинах хoлмoв на 2-5 м/с выше, чем в oбычных услoвиях.
Атмoсфернoе давление в разных тoчках местнoсти мoжет значительнo oтличаться oт давления на метеoстанции, в зависимoсти oт услoвий рельефа (при пoдъёме на 10 м давление пoнижается примернo на 1 мм рт.ст.).